KUIPER-00021

导读 | 豆包AI

KUIPER-00021是美国亚马逊“柯伊伯计划”卫星互联网星座的组网卫星,于2025年4月28日由美国联合发射联盟使用阿特拉斯V火箭,从卡纳维拉尔角太空军站发射升空。本次发射标志着柯伊伯星座正式开启全面部署,该计划计划部署3236颗近地轨道卫星,旨在为全球服务不足的社区提供高速可靠的宽带互联网接入服务。

Basic Information
目录编号:
63736
目录名称:
KUIPER-00021
国际标识:
2025-088N
轨道中心:
EARTH
卫星名称:
KUIPER-00021
卫星全名:
KUIPER-00021
卫星状态:
在轨 (已飞行366 天)
发射日期:
2025-04-28 UTC
国别 :
美国 (US)
星等 :
--
Orbit Information
数据来源 国际轨道数据
星历时间: 2026-04-29T04:00:01+0800
5小时前
查看轨道信息
半长轴: 7009.543km
偏心率: 0.0001551
轨道倾角: 51.899°
近地点辐角 180.695°
升交点赤经 241.306°
平近点角 43.109°
近地点: 630.318km
远地点: 632.494km
周期: 97.341分钟
每日圈数: 14.793407
Detailed Information
使用方式:
暂无
2D Orbit Map
3D Orbit Map
Orbit Altitude Analysis Chart
Orbit Inclination Analysis Chart
Orbit Comprehensive Analysis Chart
View Comprehensive Chart